Showing default

KUIPER-00505, 68886

Orbit data source: Space-Track

KUIPER-00505, 68886 is an American payload satellite in LEO that was launched on Tue, 28 Apr 2026 UTC launched from the Air Force Eastern Test Range (AFETR). Payload-class satellites include a variety of spacecraft equipped with specific instruments for various scientific and technological missions. These include communications satellites like Starlink; space stations such as the ISS; scientific satellites like the Hubble; Earth observation satellites from companies like Planet Labs, Umbra, and HawkEye 360; GPS; miniature CubeSats for education and research; and military/defense satellites.

Loading next visibility...
Identifier
68886, 2026-095Y
Orbit
LEO
Country
Flag of USUS
Related business
None
Manufacturer
Unknown
Mission
Operational spacecraft
Bus & Motor
Unknown
Mass
Unknown
Launch date (UTC)
2026-04-28 (4 days ago)
Launch vehicle
Unknown
Launch site
Air Force Eastern Test Range (AFETR)
Object type
Payload
Rocket body
Debris
Shape & HBR
Unknown
Radar Cross Section
RCS unknown

Expand to show TLE details & history
Last TLE update: 7 hours ago

TLE from 7 hours ago
0 KUIPER-00505
1 68886U 26095Y   26122.16670139 -.00000330  00000-0  17128-5 0  9995
2 68886  51.8803 104.8995 0004693 104.4768 102.5354 15.37562008  1425
Epoch: 2026-05-02T04:00Z
TLE epoch observation values (Epoch: 2026-05-02T04:00:03.000Z)
Latitude
-21.15772°
Longitude
22.37623°
Altitude
459.819 km
Speed
7.637 km/s
True Right ascension
20h 09m 54s
True Declination
-21° 02' 14"
Sunlit
Object was in daylight at epoch
Visualization orbit readout
Latitude
Unknown
Longitude
Unknown
Altitude
Unknown
Speed
Unknown
Apparent Right ascension
Unknown
Apparent Declination
Unknown
Sunlit
N/A
Visualization observer readout
Local Sidereal Time
18:41:00
Azimuth
Unknown
Elevation
Unknown
Doppler factor
Unknown
Orbital elements
Apogee altitude
456.993 km
Perigee altitude
450.581 km
Semi-major axis
6,831.924 km
Eccentricity
0.00047
Inclination
51.8803°
RAAN
104.8995°
Arg. of periapsis
104.4768°
True anomaly
102.58789°
Mean anomaly
102.5354°
Eccentric anomaly
102.56165°
Mean motion
3.84352 °/min
Orbital period
93.66 mins
BSTAR
0.0000017128
Loading maneuver chart data...
Computing Atmospheric mass density...
Loading historical data...
Loading historical data...
Loading historical data...
Loading historical data...
Loading historical data...
Loading historical data...
Loading historical data...

Documentation

Showing up to 5 results
|